NWA404 KBOS-CYYZ

Flight info

Callsign NWA404
Flight time N/A
Altitude 32000
Route LOGAN4 HYLND GDM PONCT FABEN AUDIL JOSSY HANKK WOZEE ISTON
Aircraft B742/H-SDFHIRWXY/L

Departure

Time 2026-05-08 00:48
Airport Boston Logan International Airport (KBOS)

Arrival

Time N/A
Airport Toronto Pearson International Airport (CYYZ)
Time Latitude Longitude Altitude Speed Heading
2026-05-08 00:09 42.35857 -71.02084 22 ft 0 kts 210°
2026-05-08 00:30 42.35866 -71.02077 21 ft 2 kts 210°
2026-05-08 00:30 42.35879 -71.02067 21 ft 2 kts 210°
2026-05-08 00:30 42.35887 -71.02060 21 ft 1 kts 210°
2026-05-08 00:30 42.35901 -71.02052 21 ft 2 kts 191°
2026-05-08 00:31 42.35916 -71.02051 21 ft 2 kts 173°
2026-05-08 00:31 42.35930 -71.02055 21 ft 2 kts 158°
2026-05-08 00:31 42.35943 -71.02065 21 ft 2 kts 141°
2026-05-08 00:31 42.35954 -71.02080 21 ft 1 kts 124°
2026-05-08 00:32 42.35956 -71.02085 21 ft 0 kts 121°
2026-05-08 00:35 42.35955 -71.02084 21 ft 2 kts 121°
2026-05-08 00:36 42.35941 -71.02051 21 ft 6 kts 121°
2026-05-08 00:36 42.35919 -71.02001 21 ft 5 kts 121°
2026-05-08 00:36 42.35900 -71.01956 21 ft 5 kts 121°
2026-05-08 00:36 42.35883 -71.01918 22 ft 4 kts 120°
2026-05-08 00:37 42.35867 -71.01873 22 ft 6 kts 113°
2026-05-08 00:37 42.35851 -71.01803 22 ft 9 kts 104°
2026-05-08 00:37 42.35830 -71.01692 22 ft 14 kts 103°
2026-05-08 00:38 42.35847 -71.01566 23 ft 10 kts 21°
2026-05-08 00:38 42.35928 -71.01528 22 ft 14 kts 19°
2026-05-08 00:38 42.36043 -71.01476 22 ft 20 kts 18°
2026-05-08 00:38 42.36186 -71.01406 21 ft 19 kts 19°
2026-05-08 00:39 42.36286 -71.01359 21 ft 9 kts 19°
2026-05-08 00:39 42.36326 -71.01321 21 ft 6 kts 73°
2026-05-08 00:39 42.36308 -71.01254 21 ft 9 kts 120°
2026-05-08 00:39 42.36269 -71.01162 21 ft 13 kts 120°
2026-05-08 00:40 42.36225 -71.01035 20 ft 16 kts 114°
2026-05-08 00:40 42.36173 -71.00881 20 ft 16 kts 114°
2026-05-08 00:40 42.36125 -71.00729 19 ft 17 kts 111°
2026-05-08 00:40 42.36079 -71.00555 19 ft 21 kts 109°
2026-05-08 00:41 42.36030 -71.00356 18 ft 21 kts 108°
2026-05-08 00:41 42.35988 -71.00187 17 ft 17 kts 108°
2026-05-08 00:41 42.35935 -71.00047 17 ft 4 kts 133°
2026-05-08 00:41 42.35934 -71.00045 17 ft 0 kts 133°
2026-05-08 00:42 42.35931 -71.00041 17 ft 1 kts 133°
2026-05-08 00:42 42.35931 -71.00040 17 ft 0 kts 133°
2026-05-08 00:42 42.35930 -71.00039 17 ft 0 kts 133°
2026-05-08 00:44 42.35925 -71.00033 17 ft 4 kts 133°
2026-05-08 00:44 42.35871 -70.99958 17 ft 17 kts 135°
2026-05-08 00:44 42.35761 -70.99815 17 ft 22 kts 136°
2026-05-08 00:44 42.35641 -70.99657 16 ft 24 kts 135°
2026-05-08 00:45 42.35539 -70.99520 16 ft 16 kts 135°
2026-05-08 00:45 42.35492 -70.99446 16 ft 6 kts 112°
2026-05-08 00:45 42.35489 -70.99392 16 ft 5 kts 82°
2026-05-08 00:45 42.35499 -70.99322 16 ft 7 kts 78°
2026-05-08 00:46 42.35514 -70.99269 16 ft 6 kts 36°
2026-05-08 00:46 42.35561 -70.99287 16 ft 2 kts 315°
2026-05-08 00:46 42.35561 -70.99288 16 ft 0 kts 315°
2026-05-08 00:47 42.35666 -70.99429 16 ft 56 kts 315°
2026-05-08 00:47 42.36124 -71.00044 17 ft 127 kts 315°
2026-05-08 00:48 42.36888 -71.01054 165 ft 170 kts 314°
2026-05-08 00:48 42.37752 -71.02148 854 ft 174 kts 315°
2026-05-08 00:48 42.38623 -71.03258 1652 ft 175 kts 315°
2026-05-08 00:48 42.39484 -71.04362 2246 ft 174 kts 315°
2026-05-08 00:49 42.40392 -71.05516 2663 ft 183 kts 316°
2026-05-08 00:49 42.41341 -71.06741 3039 ft 195 kts 316°
2026-05-08 00:49 42.42347 -71.08041 3421 ft 208 kts 316°
2026-05-08 00:49 42.43420 -71.09431 3906 ft 217 kts 316°
2026-05-08 00:50 42.44508 -71.10838 4412 ft 219 kts 316°
2026-05-08 00:50 42.45645 -71.12303 4866 ft 231 kts 316°
2026-05-08 00:50 42.46837 -71.13834 5402 ft 242 kts 316°
2026-05-08 00:50 42.48073 -71.15421 5998 ft 251 kts 316°
2026-05-08 00:51 42.49367 -71.17013 6625 ft 258 kts 323°
2026-05-08 00:51 42.51064 -71.17902 7243 ft 268 kts 351°
2026-05-08 00:51 42.52911 -71.18106 7947 ft 271 kts 350°
2026-05-08 00:51 42.54763 -71.18629 8682 ft 271 kts 341°
2026-05-08 00:52 42.56573 -71.19323 9441 ft 273 kts 340°
2026-05-08 00:52 42.58390 -71.20032 10193 ft 274 kts 339°
2026-05-08 00:52 42.60224 -71.20744 10895 ft 277 kts 339°
2026-05-08 00:52 42.62114 -71.21475 11531 ft 282 kts 338°
2026-05-08 00:53 42.64001 -71.22205 12178 ft 285 kts 337°
2026-05-08 00:53 42.65908 -71.22941 12827 ft 288 kts 336°
2026-05-08 00:53 42.67885 -71.23708 13266 ft 299 kts 336°
2026-05-08 00:53 42.69907 -71.24495 13642 ft 312 kts 336°
2026-05-08 00:54 42.71987 -71.25492 13924 ft 320 kts 325°
2026-05-08 00:54 42.73828 -71.27269 14015 ft 329 kts 309°
2026-05-08 00:54 42.75207 -71.29804 14035 ft 340 kts 293°
2026-05-08 00:54 42.75961 -71.32766 14028 ft 330 kts 277°
2026-05-08 00:55 42.76006 -71.35914 14033 ft 337 kts 261°
2026-05-08 00:55 42.75332 -71.39012 14034 ft 346 kts 247°
2026-05-08 00:55 42.74225 -71.41910 14035 ft 347 kts 244°
2026-05-08 00:55 42.73126 -71.44840 14030 ft 346 kts 246°
2026-05-08 00:56 42.72098 -71.47846 14033 ft 346 kts 248°
2026-05-08 00:56 42.71138 -71.50840 14036 ft 349 kts 249°
2026-05-08 00:56 42.70199 -71.53879 14122 ft 347 kts 249°
2026-05-08 00:56 42.69275 -71.56922 14316 ft 353 kts 249°
2026-05-08 00:57 42.68341 -71.60017 15093 ft 353 kts 249°
2026-05-08 00:57 42.67435 -71.63033 15926 ft 350 kts 249°
2026-05-08 00:57 42.66513 -71.66097 16665 ft 350 kts 248°
2026-05-08 00:57 42.65587 -71.69172 17355 ft 352 kts 248°
2026-05-08 00:58 42.64671 -71.72210 18063 ft 352 kts 247°
2026-05-08 00:58 42.63731 -71.75322 18751 ft 354 kts 247°
2026-05-08 00:58 42.62795 -71.78417 19326 ft 357 kts 246°
2026-05-08 00:58 42.61848 -71.81554 19922 ft 360 kts 246°
2026-05-08 00:59 42.60915 -71.84682 20540 ft 361 kts 247°
2026-05-08 00:59 42.59978 -71.87839 21109 ft 364 kts 247°
2026-05-08 00:59 42.59031 -71.91021 21663 ft 366 kts 246°
2026-05-08 00:59 42.58064 -71.94254 22186 ft 369 kts 246°
2026-05-08 01:00 42.57100 -71.97461 22722 ft 371 kts 246°
2026-05-08 01:00 42.56112 -72.00735 23224 ft 374 kts 247°
2026-05-08 01:00 42.55256 -72.04086 23697 ft 378 kts 255°
2026-05-08 01:00 42.55008 -72.07645 24144 ft 386 kts 267°
2026-05-08 01:01 42.55259 -72.11318 24606 ft 392 kts 272°
2026-05-08 01:01 42.55662 -72.14949 25019 ft 396 kts 274°
2026-05-08 01:01 42.56115 -72.18651 25503 ft 397 kts 274°
2026-05-08 01:01 42.56573 -72.22330 25985 ft 396 kts 274°
2026-05-08 01:02 42.57036 -72.26063 26509 ft 393 kts 274°
2026-05-08 01:02 42.57482 -72.29689 26961 ft 391 kts 273°
2026-05-08 01:02 42.57925 -72.33325 27412 ft 390 kts 273°
2026-05-08 01:02 42.58364 -72.36961 27863 ft 388 kts 273°
2026-05-08 01:03 42.58795 -72.40548 28317 ft 386 kts 273°
2026-05-08 01:03 42.59220 -72.44103 28759 ft 384 kts 273°
2026-05-08 01:03 42.59648 -72.47697 29210 ft 381 kts 273°
2026-05-08 01:03 42.60064 -72.51199 29654 ft 379 kts 273°
2026-05-08 01:04 42.60482 -72.54742 30100 ft 378 kts 273°
2026-05-08 01:04 42.60893 -72.58231 30522 ft 377 kts 273°
2026-05-08 01:04 42.61306 -72.61740 30922 ft 375 kts 273°
2026-05-08 01:04 42.61713 -72.65217 31286 ft 375 kts 272°
2026-05-08 01:05 42.62120 -72.68716 31644 ft 375 kts 273°
2026-05-08 01:05 42.62527 -72.72201 31933 ft 375 kts 272°
2026-05-08 01:05 42.62933 -72.75710 32032 ft 379 kts 273°
2026-05-08 01:06 42.63750 -72.82762 32050 ft 374 kts 272°
2026-05-08 01:06 42.64548 -72.89684 32046 ft 374 kts 272°
2026-05-08 01:07 42.65342 -72.96633 32047 ft 372 kts 272°
2026-05-08 01:07 42.66126 -73.03590 32041 ft 372 kts 272°
2026-05-08 01:08 42.66916 -73.10575 32057 ft 374 kts 272°
2026-05-08 01:08 42.67700 -73.17499 32064 ft 372 kts 272°
2026-05-08 01:09 42.68476 -73.24423 32065 ft 373 kts 272°
2026-05-08 01:09 42.69253 -73.31384 32070 ft 372 kts 273°
2026-05-08 01:10 42.70023 -73.38334 32069 ft 376 kts 272°
2026-05-08 01:10 42.70804 -73.45471 32080 ft 390 kts 272°
2026-05-08 01:11 42.71614 -73.52883 32072 ft 402 kts 273°
2026-05-08 01:11 42.72440 -73.60465 32079 ft 411 kts 273°
2026-05-08 01:12 42.73277 -73.68172 32078 ft 407 kts 273°
2026-05-08 01:12 42.74096 -73.75773 32081 ft 406 kts 272°
2026-05-08 01:13 42.74738 -73.83388 32069 ft 405 kts 270°
2026-05-08 01:13 42.75235 -73.90974 32086 ft 403 kts 270°
2026-05-08 01:14 42.75691 -73.98576 32065 ft 404 kts 270°
2026-05-08 01:14 42.76130 -74.06164 32071 ft 405 kts 270°
2026-05-08 01:15 42.76562 -74.13781 32072 ft 404 kts 270°
2026-05-08 01:15 42.76989 -74.21379 32081 ft 406 kts 270°
2026-05-08 01:16 42.77416 -74.29087 32045 ft 405 kts 270°
2026-05-08 01:16 42.77831 -74.36692 32063 ft 407 kts 270°
2026-05-08 01:17 42.78244 -74.44394 32065 ft 408 kts 270°
2026-05-08 01:17 42.78647 -74.52059 32072 ft 408 kts 270°
2026-05-08 01:18 42.79048 -74.59783 32076 ft 409 kts 270°
2026-05-08 01:18 42.79443 -74.67510 32065 ft 408 kts 270°
2026-05-08 01:19 42.79833 -74.75240 32053 ft 410 kts 270°
2026-05-08 01:19 42.80219 -74.82999 32068 ft 411 kts 270°